File timestamp: Sat Aug  6 03:00:00 2016, Internal temp: 44.6319580078125
1470452401.008, 0.0706439688801765, 0.0534585081040859, -0.0232406258583069, 33847, 33158, 23112, 135.899291992188
1470452402.008, 0.108366094529629, 0.0597156472504139, -0.0240378435701132, 33903, 33258, 23177, NaN
1470452403.008, 0.0957813486456871, 0.064658135175705, -0.0241452623158693, 33746, 33480, 23313, NaN
1470452404.008, 0.0208793394267559, 0.0664954334497452, -0.026195302605629, 34248, 33318, 23204, NaN
1470452404.008, -0.0179833769798279, 0.0652956888079643, -0.0271529741585255, 33919, 33368, 23089, NaN
1470452405.014, -0.00630388036370277, 0.064556360244751, -0.0255458634346724, 33651, 33478, 23210, NaN
1470452406.014, -0.00882998015731573, 0.0624070577323437, -0.0246777888387442, 34232, 33249, 23269, NaN
1470452407.014, -0.0270761381834745, 0.0596464090049267, -0.0234043467789888, 33856, 33308, 23129, NaN
1470452408.014, -0.0438111536204815, 0.0567759126424789, -0.0227794703096151, 33727, 33295, 23196, NaN
1470452409.014, -0.0603784546256065, 0.0525220446288586, -0.0233553890138865, 34229, 33070, 23112, NaN
1470452410.014, -0.0416241884231567, 0.0508043244481087, -0.0229926370084286, 33791, 33197, 23144, NaN
1470452411.014, 0.0136155309155583, 0.0514019690454006, -0.0226319693028927, 33864, 33234, 23261, NaN
1470452412.022, 0.0213631689548492, 0.0514522604644299, -0.0229467228055, 33953, 33138, 23266, NaN
1470452413.022, -0.0232788417488337, 0.0514444895088673, -0.0228613466024399, 34042, 33197, 23235, NaN
1470452413.022, -0.0382861867547035, 0.0525139383971691, -0.0234505869448185, 34006, 33270, 23136, NaN
1470452414.03, -0.0243610590696335, 0.0538909211754799, -0.0237970780581236, 33704, 33335, 23164, NaN
1470452415.03, 0.00907247513532639, 0.0559125393629074, -0.0246126614511013, 34047, 33226, 23138, NaN
1470452416.03, 0.0482616238296032, 0.0594603978097439, -0.0235901139676571, 33916, 33340, 23211, NaN
1470452417.03, 0.0463487170636654, 0.0630953833460808, -0.0228325072675943, 34138, 33281, 23169, NaN
1470452417.03, 0.0310229826718569, 0.0654794126749039, -0.0231944564729929, 33826, 33373, 23137, NaN
1470452418.032, 0.0130797950550914, 0.0681354179978371, -0.0237176511436701, 33847, 33427, 23220, NaN
1470452419.032, -0.005206314381212, 0.0685196295380592, -0.0248871352523565, 34187, 33323, 23205, NaN
1470452420.032, -0.0315698273479939, 0.0666556283831596, -0.0251904334872961, 33738, 33345, 23093, NaN
1470452421.032, -0.0330665670335293, 0.0627460852265358, -0.0243388265371323, 33975, 33299, 23175, NaN
1470452421.032, -0.0186562817543745, 0.0580827258527279, -0.0235973298549652, 34100, 33183, 23197, NaN
1470452422.04, -0.0297610890120268, 0.0545858331024647, -0.0228761434555054, 33570, 33296, 23188, NaN
1470452423.04, -0.0379589572548866, 0.0522604770958424, -0.0231057349592447, 34097, 33166, 23191, NaN
1470452424.04, -0.0195945203304291, 0.0512353256344795, -0.0235055238008499, 34126, 33126, 23061, NaN
1470452425.04, -0.0020767233800143, 0.0540547892451286, -0.0234350245445967, 33551, 33323, 23143, NaN
1470452426.04, 0.0114257242530584, 0.0576884336769581, -0.0244669821113348, 34169, 33213, 23182, NaN
1470452427.04, 0.0340498611330986, 0.0616198666393757, -0.0257455464452505, 33996, 33300, 23289, NaN
1470452428.04, 0.0258519854396582, 0.0635804459452629, -0.0257841870188713, 33811, 33373, 23152, NaN
1470452429.04, 0.0187726281583309, 0.065124474465847, -0.0274235662072897, 33930, 33364, 23115, NaN
1470452430.04, 0.0252008102834225, 0.0653861165046692, -0.0282052140682936, 33810, 33351, 23213, NaN
1470452431.04, 0.0181423481553793, 0.0627716034650803, -0.0266831144690514, 34151, 33196, 23229, NaN
1470452432.048, 0.00257927109487355, 0.0586009286344051, -0.0253823846578598, 34021, 33212, 23139, NaN
1470452433.048, -0.0132302241399884, 0.0561924315989017, -0.0238870549947023, 33640, 33350, 23124, NaN
1470452434.048, -0.00946365017443895, 0.0532164946198463, -0.0222762394696474, 34015, 33128, 23163, NaN
1470452435.048, 0.00368255050852895, 0.0504131391644478, -0.022659657523036, 33948, 33085, 23170, NaN
1470452436.048, 0.0219633169472218, 0.0505721755325794, -0.0221768263727427, 34045, 33081, 23167, NaN
1470452437.048, 0.0377302020788193, 0.0548522546887398, -0.0219610277563334, 33758, 33271, 23214, NaN
1470452438.048, 0.0308280028402805, 0.0589060857892036, -0.0207944624125957, 33867, 33268, 23251, NaN
1470452439.048, 0.0233134012669325, 0.063953772187233, -0.0222926624119282, 34215, 33250, 23149, NaN
1470452440.048, 0.0291660707443953, 0.0691880956292152, -0.0233869757503271, 33718, 33444, 23134, NaN
1470452441.048, 0.0387904085218906, 0.0722521170973778, -0.0237543620169163, 33916, 33446, 23248, NaN
1470452442.048, 0.0404914580285549, 0.0739127919077873, -0.0238645039498806, 34135, 33464, 23215, NaN
1470452443.048, 0.00411827908828855, 0.0747763589024544, -0.022659320384264, 33898, 33446, 23200, NaN
1470452444.058, -0.04011370241642, 0.0739453881978989, -0.0222831647843122, 33767, 33376, 23230, NaN
1470452444.058, -0.0682184621691704, 0.0712330266833305, -0.0231519788503647, 34112, 33402, 23180, NaN
1470452445.066, -0.0574319697916508, 0.0683444067835808, -0.0238603372126818, 33980, 33345, 23161, NaN
1470452446.066, -0.0404026955366135, 0.0640379637479782, -0.0217448715120554, 33757, 33298, 23248, NaN
1470452447.066, -0.0504512600600719, 0.0600694604218006, -0.0213374178856611, 34075, 33202, 23157, NaN
1470452448.066, -0.0386042818427086, 0.0553697943687439, -0.0215271338820457, 33923, 33253, 23261, NaN
1470452449.066, -0.0365101881325245, 0.0496809892356396, -0.0204685069620609, 33923, 33115, 23204, NaN
1470452450.066, -0.020356509834528, 0.0445382185280323, -0.018622474744916, 33857, 33050, 23104, NaN
1470452451.066, 0.00676020979881287, 0.0419951900839806, -0.0174418427050114, 33822, 33099, 23306, NaN
1470452452.066, 0.00276562152430415, 0.0401941016316414, -0.0184066463261843, 33998, 32969, 23167, NaN
1470452453.066, -0.000920914229936898, 0.0398613475263119, -0.0186528861522675, 33905, 33058, 23244, NaN
1470452454.066, 0.00308598927222192, 0.0423124432563782, -0.0196762382984161, 33769, 33180, 23114, NaN
1470452455.076, 0.0380166545510292, 0.0460919998586178, -0.019728159531951, 33864, 33123, 23251, NaN
1470452456.076, 0.0774583891034126, 0.0527658723294735, -0.0200664792209864, 34033, 33273, 23249, 135.977462768555
1470452457.076, 0.0704334378242493, 0.0580230019986629, -0.020536445081234, 33996, 33290, 23246, NaN
1470452458.076, 0.0448278412222862, 0.0616808049380779, -0.0207017548382282, 34075, 33323, 23134, NaN
1470452458.076, 0.029020369052887, 0.0648030564188957, -0.0204310081899166, 33543, 33455, 23221, NaN
1470452459.082, 0.00122362363617867, 0.0656547769904137, -0.0208740346133709, 34101, 33399, 23278, NaN
1470452460.082, -0.0252474900335073, 0.0641587749123573, -0.0225548893213272, 34242, 33337, 23082, NaN
1470452461.082, -0.0101704830303788, 0.0622070357203484, -0.0208636373281479, 33668, 33456, 23180, NaN
1470452462.082, -0.0104875201359391, 0.0593034140765667, -0.0186979435384274, 33834, 33332, 23267, NaN
1470452463.082, -0.0283957943320274, 0.0578326992690563, -0.0200114138424397, 34259, 33278, 23140, NaN
1470452464.082, -0.0395500175654888, 0.0555940084159374, -0.0203609205782413, 33692, 33282, 23176, NaN
1470452465.082, -0.0529011785984039, 0.0545587800443172, -0.0205957759171724, 33833, 33232, 23157, NaN
1470452466.09, -0.0232448764145374, 0.0543365553021431, -0.0196319818496704, 34248, 33201, 23183, NaN
1470452467.09, 0.00288766296580434, 0.0544773899018764, -0.0180374886840582, 33806, 33288, 23262, NaN
1470452467.09, -0.0189022738486528, 0.052912600338459, -0.0177374463528395, 33809, 33187, 23197, NaN
1470452468.098, -0.0254873372614384, 0.0525767654180527, -0.0167995076626539, 34011, 33237, 23172, NaN
1470452469.098, -0.0161170028150082, 0.052336685359478, -0.0166103877127171, 33919, 33223, 23195, NaN
1470452470.098, 0.00138691801112145, 0.0517585426568985, -0.0166623909026384, 34169, 33130, 23156, NaN
1470452471.098, 0.0209851004183292, 0.0519095174968243, -0.0162029024213552, 33686, 33309, 23236, NaN
1470452471.098, 0.0160469692200422, 0.0514043159782887, -0.016190480440855, 33909, 33184, 23287, NaN
1470452472.1, 0.00136029347777367, 0.0499983355402946, -0.0168540272861719, 34089, 33187, 23182, NaN
1470452473.1, 0.00649587344378233, 0.0494000650942326, -0.0169400442391634, 33975, 33171, 23203, NaN
1470452474.1, 0.0295784007757902, 0.050072755664587, -0.0156648345291615, 34092, 33099, 23183, NaN
1470452475.1, 0.0244771856814623, 0.0516531951725483, -0.0156317297369242, 33671, 33293, 23198, NaN
1470452475.1, 0.0164125952869654, 0.0530269257724285, -0.0167809519916773, 33899, 33263, 23213, NaN
1470452476.108, 0.0393546931445599, 0.0543844811618328, -0.0172570645809174, 34183, 33229, 23137, NaN
1470452477.108, 0.064307413995266, 0.0558566972613335, -0.0160600300878286, 33932, 33262, 23264, NaN
1470452478.108, 0.0580664798617363, 0.0570415928959846, -0.0154485562816262, 34054, 33291, 23225, NaN
1470452479.108, 0.0179620943963528, 0.0584199912846088, -0.0163535252213478, 33762, 33340, 23179, NaN
1470452479.108, 0.000997991883195937, 0.0589520484209061, -0.0164851136505604, 33911, 33328, 23172, NaN
1470452480.112, 0.014844972640276, 0.0604199208319187, -0.0171835161745548, 34248, 33205, 23195, NaN
1470452481.112, 0.0139590743929148, 0.0619209073483944, -0.0171174947172403, 33838, 33425, 23272, NaN
1470452482.112, -0.0221136827021837, 0.0621500611305237, -0.015982910990715, 33760, 33329, 23220, NaN
1470452483.112, -0.0320576466619968, 0.0623273178935051, -0.0157141666859388, 34100, 33279, 23178, NaN
1470452484.112, -0.0310005191713572, 0.0630223825573921, -0.016381548717618, 34024, 33301, 23227, NaN
1470452485.112, -0.0342107228934765, 0.0627000629901886, -0.0162325222045183, 33858, 33286, 23172, NaN
1470452486.122, -0.0392191596329212, 0.060451116412878, -0.0154549106955528, 33935, 33278, 23186, NaN
1470452487.122, -0.0438852794468403, 0.0578589774668217, -0.0158157106488943, 33882, 33349, 23219, NaN
1470452488.122, -0.0317900255322456, 0.055773489177227, -0.0159074254333973, 34075, 33236, 23211, NaN
1470452489.122, -0.0292438175529242, 0.052915420383215, -0.0160371903330088, 34128, 33109, 23153, NaN
1470452490.122, -0.0197196416556835, 0.0506463088095188, -0.0144985439255834, 33709, 33158, 23194, NaN
1470452491.122, 0.00552709819748998, 0.050875436514616, -0.0130596337839961, 33832, 33185, 23187, NaN
1470452492.122, 0.0225535146892071, 0.0518941134214401, -0.0131046157330275, 34236, 33130, 23218, NaN
1470452493.122, 0.00796850677579641, 0.0519323162734509, -0.0145555371418595, 33927, 33207, 23187, NaN
1470452494.122, 0.0217372961342335, 0.0532477423548698, -0.0154863242059946, 33920, 33140, 23150, NaN
1470452495.122, 0.0606232136487961, 0.0558467023074627, -0.0152325481176376, 33874, 33215, 23185, NaN
1470452496.122, 0.0600163526833057, 0.0590658225119114, -0.0142130693420768, 33830, 33328, 23300, NaN
1470452497.132, 0.0178170260041952, 0.0600816048681736, -0.0144709702581167, 34249, 33173, 23234, NaN
1470452497.132, -0.0156832132488489, 0.0591032952070236, -0.0156561993062496, 33855, 33331, 23205, NaN
1470452498.14, -0.0247980765998363, 0.0581929199397564, -0.0156268458813429, 33797, 33220, 23228, NaN
1470452499.14, -0.0213681478053331, 0.0584029480814934, -0.0154769895598292, 33970, 33232, 23209, NaN
1470452500.14, -0.0162893328815699, 0.0579425729811192, -0.0150003442540765, 33930, 33311, 23232, NaN
1470452501.14, -0.019148325547576, 0.0579187013208866, -0.0149565786123276, 34177, 33159, 23288, NaN
1470452502.14, -0.0311778597533703, 0.0598701573908329, -0.0160854440182447, 33862, 33320, 23093, NaN
1470452503.14, -0.0265908036381006, 0.0621478110551834, -0.017921220511198, 33624, 33355, 23256, NaN
1470452504.14, -0.00641347421333194, 0.065478503704071, -0.0183946676552296, 34272, 33290, 23273, NaN
1470452505.14, -0.00044645625166595, 0.0679421648383141, -0.0185857955366373, 34138, 33320, 23178, NaN
1470452506.14, -0.00764728151261806, 0.0700122639536858, -0.018499780446291, 33717, 33428, 23166, NaN
1470452507.14, 0.00123808428179473, 0.0711731538176537, -0.0174073185771704, 33863, 33397, 23295, NaN
1470452508.15, -0.00633918400853872, 0.071511372923851, -0.0173363070935011, 34220, 33358, 23238, NaN
1470452509.15, -0.0336142107844353, 0.0686953067779541, -0.0170689728111029, 33912, 33358, 23209, NaN
1470452510.15, -0.0396752208471298, 0.0654935166239738, -0.0162555258721113, 33771, 33385, 23125, 136.500869750977
1470452511.15, -0.0272720400243998, 0.0619207099080086, -0.0146380020305514, 33968, 33229, 23262, NaN
1470452511.15, -0.0197708625346422, 0.0597967617213726, -0.0141630433499813, 34125, 33193, 23178, NaN
1470452512.156, -0.00609302287921309, 0.0586363524198532, -0.0137467477470636, 33892, 33252, 23197, NaN
1470452513.156, 0.0116558074951172, 0.0582217201590538, -0.0128530710935593, 33804, 33223, 23261, NaN
1470452514.156, 0.00830539874732494, 0.0584774650633335, -0.0134003330022097, 34045, 33147, 23192, NaN
1470452515.156, 0.0135424053296447, 0.0595977231860161, -0.0146036008372903, 34011, 33248, 23232, NaN
1470452516.156, 0.0352786034345627, 0.0601149797439575, -0.0145702483132482, 34072, 33205, 23222, NaN
1470452517.156, 0.0460827685892582, 0.0601852498948574, -0.0137121072039008, 33854, 33228, 23124, NaN
1470452518.156, 0.0537639036774635, 0.0597092881798744, -0.0134842675179243, 33735, 33238, 23262, NaN
1470452519.164, 0.041130430996418, 0.0572323277592659, -0.0135921603068709, 34232, 33113, 23259, NaN
1470452520.164, 0.0177296418696642, 0.0546207912266254, -0.0143083278089762, 33999, 33141, 23200, NaN
1470452520.164, 0.0182640384882689, 0.0524134002625942, -0.0150220487266779, 33829, 33129, 23166, NaN
1470452521.172, 0.027362609282136, 0.0522831976413727, -0.0149756316095591, 33969, 33088, 23153, NaN
1470452522.172, 0.0324850529432297, 0.0522445999085903, -0.0147115038707852, 33704, 33124, 23225, NaN
1470452523.172, 0.0361946262419224, 0.0538641214370728, -0.0144110722467303, 34092, 33074, 23246, NaN
1470452524.172, 0.0302402172237635, 0.0566454976797104, -0.0155753865838051, 34124, 33191, 23193, NaN
1470452524.172, 0.0223688166588545, 0.0592410154640675, -0.0164127331227064, 33773, 33280, 23178, NaN
1470452525.176, 0.0392367243766785, 0.0627796649932861, -0.0171874091029167, 33919, 33201, 23215, NaN
1470452526.176, 0.0474848560988903, 0.0650126114487648, -0.0167699959129095, 33898, 33298, 23269, NaN
1470452527.176, 0.0160999707877636, 0.0649686679244041, -0.0173147320747375, 33923, 33379, 23216, NaN
1470452528.176, -0.0303468257188797, 0.0645175129175186, -0.0171903539448977, 34238, 33188, 23179, NaN
1470452528.176, -0.0493456907570362, 0.0627885609865189, -0.0174319203943014, 33787, 33223, 23077, NaN
1470452529.184, -0.0261591523885727, 0.0611511580646038, -0.0169414114207029, 33724, 33298, 23238, NaN
1470452530.184, -0.0105362925678492, 0.0602604039013386, -0.0169149693101645, 34194, 33156, 23247, NaN
1470452531.184, -0.0227730274200439, 0.0590384602546692, -0.0164881777018309, 33946, 33205, 23164, NaN
1470452532.184, -0.0257251840084791, 0.0584449507296085, -0.0172056891024113, 33795, 33305, 23225, NaN
1470452532.184, -0.0353290475904942, 0.0586990714073181, -0.0179605148732662, 33978, 33132, 23173, NaN
1470452533.188, -0.0377202667295933, 0.0606444254517555, -0.0182067882269621, 33914, 33195, 23226, NaN
1470452534.188, -0.0267433486878872, 0.0621007084846497, -0.018309973180294, 34131, 33260, 23241, NaN
1470452535.188, -0.018991420045495, 0.0633605644106865, -0.0179212652146816, 34024, 33266, 23193, NaN
1470452536.188, -0.0389270484447479, 0.0634297877550125, -0.0190606471151114, 33605, 33362, 23170, NaN
1470452536.188, -0.0457431487739086, 0.062646210193634, -0.020182004198432, 34138, 33182, 23243, NaN
1470452537.188, -0.0321904830634594, 0.0598715804517269, -0.0210530050098896, 34137, 33124, 23202, NaN
1470452538.198, -0.02718635648489, 0.0580401197075844, -0.021907065063715, 33866, 33271, 23197, NaN
1470452539.198, -0.0181289725005627, 0.0565758571028709, -0.0217111334204674, 33946, 33162, 23207, NaN
1470452540.198, -0.00372897344641387, 0.0546911209821701, -0.0205859430134296, 33867, 33154, 23212, NaN
1470452541.198, -0.00239635445177555, 0.0551090650260448, -0.0197058785706758, 33783, 33229, 23228, NaN
1470452542.198, 0.00435832049697638, 0.0573929660022259, -0.0209765192121267, 34264, 33131, 23275, NaN
1470452543.198, 0.0161024536937475, 0.0599040910601616, -0.021623907610774, 33959, 33253, 23187, NaN
1470452544.198, 0.0168604571372271, 0.0611279718577862, -0.0212959200143814, 33694, 33293, 23170, NaN
1470452545.198, 0.0242690742015839, 0.0625042095780373, -0.0225722454488277, 34054, 33244, 23185, NaN
1470452546.198, 0.0410466082394123, 0.0636931136250496, -0.0227394513785839, 33948, 33252, 23248, NaN
1470452547.198, 0.0234278421849012, 0.0633369237184525, -0.0221317373216152, 33984, 33238, 23309, NaN
1470452548.198, -0.0226867161691189, 0.0595574229955673, -0.0219507981091738, 34207, 33155, 23063, NaN
1470452549.198, -0.0156784951686859, 0.0583961941301823, -0.0206006411463022, 33621, 33258, 23155, NaN
1470452549.198, 0.00426011858507991, 0.0570936948060989, -0.0210530105978251, 33902, 33163, 23284, NaN
1470452550.206, -0.00196085404604673, 0.0555788278579712, -0.0200133640319109, 34148, 33147, 23182, NaN
1470452551.206, -0.00237393751740456, 0.0563516952097416, -0.0192765630781651, 33917, 33233, 23205, NaN
1470452552.206, 0.00796729139983654, 0.0577036701142788, -0.018877699971199, 34093, 33128, 23211, NaN
1470452553.206, 0.00884293485432863, 0.059091504663229, -0.0192245617508888, 33865, 33198, 23175, NaN
1470452554.206, -0.00117925927042961, 0.0620643831789494, -0.0190535448491573, 33664, 33356, 23234, NaN
1470452555.206, -0.00212465110234916, 0.0645551905035973, -0.0207573790103197, 34137, 33252, 23239, NaN
1470452556.206, 0.00426159100607038, 0.06834327429533, -0.021154597401619, 34159, 33308, 23172, NaN
1470452557.206, 0.00715247821062803, 0.0702081173658371, -0.0215428471565247, 33875, 33394, 23226, NaN
1470452558.206, 0.00808644667267799, 0.0718694776296616, -0.0222020503133535, 33965, 33342, 23218, NaN
1470452559.206, 0.0092174531891942, 0.0713817328214645, -0.0215627364814281, 33928, 33350, 23200, NaN
1470452560.216, -0.00247903447598219, 0.0704879835247993, -0.0201162174344063, 33944, 33339, 23232, NaN
1470452561.216, -0.0192288551479578, 0.0684722065925598, -0.020389324054122, 34030, 33341, 23198, NaN
1470452562.216, -0.0123864365741611, 0.0663731545209885, -0.0202993731945753, 33944, 33296, 23231, NaN
1470452563.216, -0.0131363812834024, 0.0658322647213936, -0.0201716739684343, 33906, 33239, 23256, 136.388153076172
1470452563.216, -0.0186630133539438, 0.0648387372493744, -0.0204364135861397, 33963, 33229, 23191, NaN
1470452564.222, 0.00680276053026319, 0.0628209859132767, -0.0210243556648493, 33921, 33250, 23163, NaN
1470452565.222, 0.0387002676725388, 0.0632235258817673, -0.0207931958138943, 33910, 33222, 23163, NaN
1470452566.222, 0.025111198425293, 0.062649317085743, -0.0205378234386444, 33780, 33162, 23221, NaN
1470452567.222, -0.000893792312126607, 0.0614055432379246, -0.0211627092212439, 34078, 33192, 23224, NaN
1470452568.222, -0.00427732337266207, 0.0596939660608768, -0.0199362132698298, 34181, 33175, 23143, NaN
1470452569.222, -0.0108736250549555, 0.057652223855257, -0.0196125078946352, 33643, 33214, 23202, NaN
1470452570.222, -0.0176731180399656, 0.0559691935777664, -0.0206379797309637, 33892, 33138, 23187, NaN
1470452571.232, -0.00389214348979294, 0.0548915900290012, -0.021144513040781, 33932, 33105, 23169, NaN
1470452572.232, 0.013204887509346, 0.0532721951603889, -0.0206127278506756, 33881, 33130, 23239, NaN
1470452572.232, 0.028390571475029, 0.0524027273058891, -0.0204835757613182, 34253, 33084, 23143, NaN
1470452573.24, 0.035577554255724, 0.0540634505450726, -0.0196487158536911, 33877, 33192, 23233, NaN
1470452574.24, 0.0256165284663439, 0.0548703260719776, -0.020425433292985, 33974, 33165, 23205, NaN
1470452575.24, 0.0187245849519968, 0.0571819134056568, -0.0199880972504616, 33928, 33148, 23097, NaN
1470452576.24, 0.0300552565604448, 0.0588225312530994, -0.0202977228909731, 33646, 33289, 23210, NaN
1470452576.244, 0.0473605878651142, 0.0611632950603962, -0.0202418603003025, 34141, 33175, 23239, NaN
1470452577.246, 0.0550552345812321, 0.0635398104786873, -0.0192429646849632, 34054, 33258, 23248, NaN
1470452578.246, 0.0276115965098143, 0.0658964961767197, -0.0194442309439182, 33926, 33344, 23241, NaN
1470452579.246, 0.0013648682506755, 0.067066915333271, -0.0194368120282888, 33886, 33237, 23192, NaN
1470452580.246, -0.00427839159965515, 0.0689247325062752, -0.0184974633157253, 33879, 33325, 23191, NaN
1470452580.246, -0.0122410198673606, 0.070235475897789, -0.0178243219852448, 34023, 33342, 23274, NaN
1470452581.254, -0.0354300513863564, 0.0705929547548294, -0.0178429950028658, 34116, 33271, 23139, NaN
1470452582.254, -0.0486495904624462, 0.070067510008812, -0.0178467873483896, 33760, 33356, 23181, NaN
1470452583.254, -0.0576095655560493, 0.0697486251592636, -0.0182348024100065, 33793, 33379, 23271, NaN
1470452584.254, -0.0718382000923157, 0.0690651759505272, -0.0188873447477818, 34243, 33226, 23240, NaN
1470452584.254, -0.0694815889000893, 0.0680436417460442, -0.0188045594841242, 34025, 33310, 23112, NaN
1470452585.258, -0.0562682561576366, 0.0658463686704636, -0.0186753422021866, 33716, 33324, 23199, NaN
1470452586.258, -0.0481665544211864, 0.0641902610659599, -0.0174778420478106, 33948, 33245, 23195, NaN
1470452587.258, -0.031932033598423, 0.0617063716053963, -0.0169860385358334, 34053, 33275, 23182, NaN
1470452588.258, -0.0124756135046482, 0.0596529543399811, -0.016146332025528, 33897, 33235, 23233, NaN
1470452589.258, 0.00857039913535118, 0.0582004748284817, -0.0145836947485805, 34107, 33101, 23199, NaN
1470452590.258, 0.0150837479159236, 0.0570504032075405, -0.0148902405053377, 33857, 33157, 23113, NaN
1470452591.266, 0.0108258984982967, 0.0565380454063416, -0.0147515777498484, 33673, 33191, 23240, NaN
1470452592.266, 0.0172515455633402, 0.0577723756432533, -0.0156322568655014, 34194, 33188, 23231, NaN
1470452593.266, 0.0336745120584965, 0.0585008263587952, -0.0169247761368752, 34133, 33163, 23158, NaN
1470452593.266, 0.0584044978022575, 0.0600570179522038, -0.0161825492978096, 33702, 33293, 23231, NaN
1470452594.272, 0.0551503524184227, 0.061061080545187, -0.0154722761362791, 33827, 33240, 23275, NaN
1470452595.272, 0.013024277985096, 0.0638043284416199, -0.0166407618671656, 33977, 33221, 23158, NaN
1470452596.272, -0.000645197927951813, 0.0664327517151833, -0.018856517970562, 33900, 33329, 23191, NaN
1470452597.272, 0.0266792867332697, 0.0685695856809616, -0.0194705352187157, 34176, 33298, 23227, NaN
1470452598.272, 0.0436837263405323, 0.0700598210096359, -0.0194778852164745, 34016, 33365, 23139, NaN
1470452599.272, 0.0503857620060444, 0.0710576549172401, -0.0188135169446468, 33620, 33464, 23254, NaN
1470452600.272, 0.027703994885087, 0.0698280334472656, -0.0195085816085339, 33918, 33367, 23226, NaN
1470452601.272, -0.0104305222630501, 0.0682709962129593, -0.0204770341515541, 34261, 33232, 23240, NaN
1470452601.272, -0.021474065259099, 0.0660366266965866, -0.0205782502889633, 34024, 33305, 23128, NaN
1470452602.28, -0.0150822969153523, 0.0652806311845779, -0.0192195400595665, 33626, 33383, 23237, NaN
1470452603.28, -0.0151898786425591, 0.0625638589262962, -0.0185534656047821, 33978, 33143, 23202, NaN
1470452604.28, -0.00141402042936534, 0.0587303340435028, -0.0167887639254332, 34066, 33147, 23224, NaN
1470452605.28, 0.00175174791365862, 0.0553176626563072, -0.0178635530173779, 33854, 33258, 23274, NaN
1470452606.28, -0.0173065867275, 0.0519063249230385, -0.0178001616150141, 34000, 33119, 23125, NaN
1470452607.28, -0.0286008026450872, 0.0493612885475159, -0.0182644687592983, 33617, 33205, 23195, NaN
1470452608.28, -0.0207029581069946, 0.048571489751339, -0.0197380762547255, 34042, 33055, 23157, NaN